Time,TemperatureF,DewpointF,PressureIn,WindDirection,WindDirectionDegrees,WindSpeedMPH,WindSpeedGustMPH,Humidity,HourlyPrecipIn,Conditions,Clouds,dailyrainin,SolarRadiationWatts/m^2,SoftwareType,DateUTC
2013-08-31 00:12:00,65.2,44.0,30.26,NNE,14,12.0,12.0,46,0.00,,,0.00,0,weatherlink.com 1.10,2013-08-31 06:12:00,
2013-08-31 00:27:00,64.7,44.0,30.26,NNE,14,10.0,14.0,47,0.00,,,0.00,0,weatherlink.com 1.10,2013-08-31 06:27:00,
2013-08-31 00:42:00,64.0,44.0,30.26,NNE,15,14.0,15.0,49,0.00,,,0.00,0,weatherlink.com 1.10,2013-08-31 06:42:00,
2013-08-31 00:57:00,63.5,44.0,30.26,North,5,15.0,16.0,50,0.00,,,0.00,0,weatherlink.com 1.10,2013-08-31 06:57:00,
2013-08-31 01:12:00,62.6,45.0,30.27,North,5,15.0,17.0,52,0.00,,,0.00,0,weatherlink.com 1.10,2013-08-31 07:12:00,
2013-08-31 01:27:00,62.1,45.0,30.27,NNE,17,16.0,20.0,53,0.00,,,0.00,0,weatherlink.com 1.10,2013-08-31 07:27:00,
2013-08-31 01:42:00,62.1,45.0,30.27,North,11,18.0,19.0,53,0.00,,,0.00,0,weatherlink.com 1.10,2013-08-31 07:42:00,
2013-08-31 01:57:00,62.0,45.0,30.28,NNE,13,16.0,20.0,54,0.00,,,0.00,0,weatherlink.com 1.10,2013-08-31 07:57:00,
2013-08-31 02:12:00,61.3,45.0,30.28,North,10,15.0,19.0,55,0.00,,,0.00,0,weatherlink.com 1.10,2013-08-31 08:12:00,
2013-08-31 02:27:00,61.2,45.0,30.28,NNE,12,16.0,19.0,55,0.00,,,0.00,0,weatherlink.com 1.10,2013-08-31 08:27:00,
2013-08-31 02:42:00,60.0,44.0,30.28,NNE,16,8.0,17.0,57,0.00,,,0.00,0,weatherlink.com 1.10,2013-08-31 08:42:00,
2013-08-31 02:58:00,59.3,44.0,30.28,NNE,16,13.0,16.0,58,0.00,,,0.00,0,weatherlink.com 1.10,2013-08-31 08:58:00,
2013-08-31 03:13:00,58.7,45.0,30.29,NNE,16,11.0,14.0,60,0.00,,,0.00,0,weatherlink.com 1.10,2013-08-31 09:13:00,
2013-08-31 03:28:00,58.2,44.0,30.29,NNE,28,9.0,13.0,60,0.00,,,0.00,0,weatherlink.com 1.10,2013-08-31 09:28:00,
2013-08-31 03:43:00,57.8,44.0,30.29,NE,55,8.0,10.0,61,0.00,,,0.00,0,weatherlink.com 1.10,2013-08-31 09:43:00,
2013-08-31 03:58:00,58.4,44.0,30.29,NNE,25,8.0,11.0,60,0.00,,,0.00,0,weatherlink.com 1.10,2013-08-31 09:58:00,
2013-08-31 04:13:00,57.9,45.0,30.29,North,11,5.0,10.0,62,0.00,,,0.00,0,weatherlink.com 1.10,2013-08-31 10:13:00,
2013-08-31 04:28:00,57.8,45.0,30.29,ENE,60,8.0,10.0,62,0.00,,,0.00,0,weatherlink.com 1.10,2013-08-31 10:28:00,
2013-08-31 04:43:00,57.2,44.0,30.30,NNE,28,5.0,8.0,62,0.00,,,0.00,0,weatherlink.com 1.10,2013-08-31 10:43:00,
2013-08-31 04:58:00,55.4,45.0,30.30,North,355,0.0,5.0,67,0.00,,,0.00,0,weatherlink.com 1.10,2013-08-31 10:58:00,
2013-08-31 05:13:00,54.4,44.0,30.30,North,355,0.0,0.0,69,0.00,,,0.00,0,weatherlink.com 1.10,2013-08-31 11:13:00,
2013-08-31 05:28:00,54.1,45.0,30.30,North,355,0.0,0.0,70,0.00,,,0.00,0,weatherlink.com 1.10,2013-08-31 11:28:00,
2013-08-31 05:43:00,55.4,45.0,30.30,NNE,17,0.0,5.0,68,0.00,,,0.00,0,weatherlink.com 1.10,2013-08-31 11:43:00,
2013-08-31 05:58:00,54.8,45.0,30.31,NNE,17,0.0,0.0,69,0.00,,,0.00,0,weatherlink.com 1.10,2013-08-31 11:58:00,
2013-08-31 06:13:00,55.2,45.0,30.30,SSE,165,0.0,0.0,68,0.00,,,0.00,0,weatherlink.com 1.10,2013-08-31 12:13:00,
2013-08-31 06:28:00,54.6,45.0,30.31,SSW,192,0.0,0.0,69,0.00,,,0.00,0,weatherlink.com 1.10,2013-08-31 12:28:00,
2013-08-31 06:43:00,55.0,44.0,30.31,SSE,152,0.0,0.0,67,0.00,,,0.00,0,weatherlink.com 1.10,2013-08-31 12:43:00,
2013-08-31 06:58:00,55.1,44.0,30.32,ESE,119,0.0,0.0,67,0.00,,,0.00,0,weatherlink.com 1.10,2013-08-31 12:58:00,
2013-08-31 07:13:00,53.7,44.0,30.32,ESE,119,0.0,0.0,71,0.00,,,0.00,11,weatherlink.com 1.10,2013-08-31 13:13:00,
2013-08-31 07:28:00,53.1,44.0,30.32,ESE,119,0.0,0.0,72,0.00,,,0.00,14,weatherlink.com 1.10,2013-08-31 13:28:00,
2013-08-31 07:43:00,53.8,45.0,30.32,ESE,119,0.0,0.0,71,0.00,,,0.00,70,weatherlink.com 1.10,2013-08-31 13:43:00,
2013-08-31 07:58:00,54.4,45.0,30.32,ESE,119,0.0,0.0,70,0.00,,,0.00,116,weatherlink.com 1.10,2013-08-31 13:58:00,
2013-08-31 08:13:00,54.5,45.0,30.32,ESE,119,0.0,2.0,70,0.00,,,0.00,169,weatherlink.com 1.10,2013-08-31 14:13:00,
2013-08-31 08:28:00,54.4,45.0,30.32,ESE,118,1.0,2.0,71,0.00,,,0.00,221,weatherlink.com 1.10,2013-08-31 14:28:00,
2013-08-31 08:43:00,54.2,45.0,30.32,NNE,27,2.0,5.0,71,0.00,,,0.00,262,weatherlink.com 1.10,2013-08-31 14:43:00,
2013-08-31 08:58:00,55.9,45.0,30.32,NNE,28,0.0,1.0,68,0.00,,,0.00,306,weatherlink.com 1.10,2013-08-31 14:58:00,
2013-08-31 09:14:00,57.4,46.0,30.32,NNE,26,3.0,4.0,66,0.00,,,0.00,345,weatherlink.com 1.10,2013-08-31 15:14:00,
2013-08-31 09:29:00,57.5,46.0,30.32,North,5,2.0,5.0,66,0.00,,,0.00,387,weatherlink.com 1.10,2013-08-31 15:29:00,
2013-08-31 09:44:00,58.0,46.0,30.31,North,349,3.0,5.0,65,0.00,,,0.00,431,weatherlink.com 1.10,2013-08-31 15:44:00,
2013-08-31 09:59:00,59.3,47.0,30.31,North,355,2.0,5.0,63,0.00,,,0.00,471,weatherlink.com 1.10,2013-08-31 15:59:00,
2013-08-31 10:14:00,60.9,47.0,30.30,North,350,0.0,5.0,60,0.00,,,0.00,512,weatherlink.com 1.10,2013-08-31 16:14:00,
2013-08-31 10:29:00,61.8,47.0,30.30,NNW,342,4.0,5.0,59,0.00,,,0.00,547,weatherlink.com 1.10,2013-08-31 16:29:00,
2013-08-31 10:44:00,62.4,47.0,30.30,North,350,3.0,8.0,58,0.00,,,0.00,582,weatherlink.com 1.10,2013-08-31 16:44:00,
2013-08-31 10:59:00,63.2,47.0,30.29,NNE,13,3.0,6.0,56,0.00,,,0.00,610,weatherlink.com 1.10,2013-08-31 16:59:00,
2013-08-31 11:14:00,64.8,47.0,30.29,North,351,0.0,7.0,53,0.00,,,0.00,640,weatherlink.com 1.10,2013-08-31 17:14:00,
2013-08-31 11:29:00,65.9,48.0,30.28,NNE,23,5.0,8.0,52,0.00,,,0.00,668,weatherlink.com 1.10,2013-08-31 17:29:00,
2013-08-31 11:44:00,66.9,48.0,30.27,North,355,5.0,8.0,50,0.00,,,0.00,694,weatherlink.com 1.10,2013-08-31 17:44:00,
2013-08-31 11:59:00,68.3,47.0,30.27,North,355,3.0,8.0,47,0.00,,,0.00,715,weatherlink.com 1.10,2013-08-31 17:59:00,
2013-08-31 12:14:00,69.6,47.0,30.27,NNW,327,3.0,8.0,45,0.00,,,0.00,729,weatherlink.com 1.10,2013-08-31 18:14:00,
2013-08-31 12:29:00,70.7,48.0,30.26,NNW,333,9.0,9.0,44,0.00,,,0.00,742,weatherlink.com 1.10,2013-08-31 18:29:00,
2013-08-31 12:44:00,71.5,48.0,30.25,NNW,336,8.0,11.0,43,0.00,,,0.00,754,weatherlink.com 1.10,2013-08-31 18:44:00,
2013-08-31 13:00:00,72.4,47.0,30.25,North,355,3.0,10.0,41,0.00,,,0.00,758,weatherlink.com 1.10,2013-08-31 19:00:00,
2013-08-31 13:15:00,73.1,47.0,30.24,North,355,7.0,11.0,40,0.00,,,0.00,766,weatherlink.com 1.10,2013-08-31 19:15:00,
2013-08-31 13:30:00,74.1,48.0,30.23,NNE,30,3.0,11.0,39,0.00,,,0.00,768,weatherlink.com 1.10,2013-08-31 19:30:00,
2013-08-31 13:45:00,75.2,48.0,30.23,WNW,301,7.0,11.0,38,0.00,,,0.00,772,weatherlink.com 1.10,2013-08-31 19:45:00,
2013-08-31 14:00:00,76.2,47.0,30.22,North,360,7.0,12.0,36,0.00,,,0.00,766,weatherlink.com 1.10,2013-08-31 20:00:00,
2013-08-31 14:15:00,77.1,46.0,30.22,WNW,303,3.0,12.0,33,0.00,,,0.00,763,weatherlink.com 1.10,2013-08-31 20:15:00,
2013-08-31 14:30:00,77.6,45.0,30.21,WNW,293,5.0,9.0,32,0.00,,,0.00,752,weatherlink.com 1.10,2013-08-31 20:30:00,
2013-08-31 14:45:00,78.3,45.0,30.21,NNW,328,8.0,10.0,31,0.00,,,0.00,744,weatherlink.com 1.10,2013-08-31 20:45:00,
2013-08-31 15:00:00,79.1,46.0,30.21,NNW,338,7.0,11.0,31,0.00,,,0.00,729,weatherlink.com 1.10,2013-08-31 21:00:00,
2013-08-31 15:15:00,79.6,46.0,30.20,NW,326,6.0,12.0,30,0.00,,,0.00,710,weatherlink.com 1.10,2013-08-31 21:15:00,
2013-08-31 15:30:00,79.7,45.0,30.19,NNW,344,2.0,11.0,29,0.00,,,0.00,687,weatherlink.com 1.10,2013-08-31 21:30:00,
2013-08-31 15:45:00,80.1,46.0,30.18,West,273,3.0,7.0,30,0.00,,,0.00,666,weatherlink.com 1.10,2013-08-31 21:45:00,
2013-08-31 16:00:00,80.4,46.0,30.18,WNW,284,7.0,11.0,30,0.00,,,0.00,640,weatherlink.com 1.10,2013-08-31 22:00:00,
2013-08-31 16:15:00,81.2,46.0,30.17,NW,318,5.0,9.0,29,0.00,,,0.00,612,weatherlink.com 1.10,2013-08-31 22:15:00,
2013-08-31 16:30:00,81.3,46.0,30.16,North,351,8.0,10.0,29,0.00,,,0.00,578,weatherlink.com 1.10,2013-08-31 22:30:00,
2013-08-31 16:45:00,81.6,45.0,30.15,NNW,333,8.0,10.0,28,0.00,,,0.00,540,weatherlink.com 1.10,2013-08-31 22:45:00,
2013-08-31 17:00:00,81.7,46.0,30.15,NNW,333,9.0,14.0,28,0.00,,,0.00,503,weatherlink.com 1.10,2013-08-31 23:00:00,
2013-08-31 17:15:00,81.8,46.0,30.14,NW,317,11.0,13.0,28,0.00,,,0.00,464,weatherlink.com 1.10,2013-08-31 23:15:00,
2013-08-31 17:30:00,82.3,45.0,30.14,NNW,336,7.0,15.0,27,0.00,,,0.00,425,weatherlink.com 1.10,2013-08-31 23:30:00,
2013-08-31 17:45:00,82.0,45.0,30.14,NNW,338,9.0,13.0,27,0.00,,,0.00,380,weatherlink.com 1.10,2013-08-31 23:45:00,
2013-08-31 18:00:00,81.8,45.0,30.13,NNW,334,10.0,13.0,27,0.00,,,0.00,338,weatherlink.com 1.10,2013-09-01 00:00:00,
2013-08-31 18:15:00,81.8,45.0,30.13,NNW,330,10.0,13.0,27,0.00,,,0.00,297,weatherlink.com 1.10,2013-09-01 00:15:00,
2013-08-31 18:30:00,81.8,45.0,30.12,NNW,332,10.0,12.0,27,0.00,,,0.00,257,weatherlink.com 1.10,2013-09-01 00:30:00,
2013-08-31 18:45:00,81.7,45.0,30.12,NNW,343,9.0,12.0,27,0.00,,,0.00,204,weatherlink.com 1.10,2013-09-01 00:45:00,
2013-08-31 19:01:00,81.5,45.0,30.12,NNW,333,10.0,12.0,28,0.00,,,0.00,155,weatherlink.com 1.10,2013-09-01 01:01:00,
2013-08-31 19:16:00,80.8,46.0,30.12,NNW,335,11.0,12.0,29,0.00,,,0.00,105,weatherlink.com 1.10,2013-09-01 01:16:00,
2013-08-31 19:31:00,80.7,46.0,30.12,North,5,9.0,13.0,29,0.00,,,0.00,63,weatherlink.com 1.10,2013-09-01 01:31:00,
2013-08-31 19:46:00,80.0,46.0,30.12,North,355,9.0,12.0,30,0.00,,,0.00,33,weatherlink.com 1.10,2013-09-01 01:46:00,
2013-08-31 20:01:00,78.3,47.0,30.12,North,9,7.0,9.0,33,0.00,,,0.00,11,weatherlink.com 1.10,2013-09-01 02:01:00,
2013-08-31 20:16:00,78.1,46.0,30.12,North,351,7.0,11.0,32,0.00,,,0.00,5,weatherlink.com 1.10,2013-09-01 02:16:00,
2013-08-31 20:31:00,76.6,45.0,30.12,NNE,23,10.0,10.0,32,0.00,,,0.00,0,weatherlink.com 1.10,2013-09-01 02:31:00,
2013-08-31 20:46:00,76.0,45.0,30.12,NNE,18,9.0,10.0,33,0.00,,,0.00,0,weatherlink.com 1.10,2013-09-01 02:46:00,
2013-08-31 21:01:00,75.1,45.0,30.13,North,5,9.0,11.0,34,0.00,,,0.00,0,weatherlink.com 1.10,2013-09-01 03:01:00,
2013-08-31 21:16:00,75.0,44.0,30.12,NNE,12,11.0,14.0,33,0.00,,,0.00,0,weatherlink.com 1.10,2013-09-01 03:16:00,
2013-08-31 21:31:00,73.8,44.0,30.13,North,5,11.0,13.0,35,0.00,,,0.00,0,weatherlink.com 1.10,2013-09-01 03:31:00,
2013-08-31 21:46:00,73.7,44.0,30.14,North,355,11.0,14.0,35,0.00,,,0.00,0,weatherlink.com 1.10,2013-09-01 03:46:00,
2013-08-31 22:01:00,71.2,45.0,30.14,North,9,9.0,12.0,39,0.00,,,0.00,0,weatherlink.com 1.10,2013-09-01 04:01:00,
2013-08-31 22:16:00,70.2,45.0,30.13,North,5,12.0,13.0,40,0.00,,,0.00,0,weatherlink.com 1.10,2013-09-01 04:16:00,
2013-08-31 22:31:00,70.2,44.0,30.13,North,360,10.0,14.0,39,0.00,,,0.00,0,weatherlink.com 1.10,2013-09-01 04:31:00,
2013-08-31 22:46:00,69.4,44.0,30.14,North,355,13.0,13.0,40,0.00,,,0.00,0,weatherlink.com 1.10,2013-09-01 04:46:00,
2013-08-31 23:01:00,68.4,44.0,30.14,NNE,13,11.0,14.0,42,0.00,,,0.00,0,weatherlink.com 1.10,2013-09-01 05:01:00,
2013-08-31 23:16:00,68.3,44.0,30.14,NNE,19,9.0,12.0,42,0.00,,,0.00,0,weatherlink.com 1.10,2013-09-01 05:16:00,
2013-08-31 23:31:00,68.3,44.0,30.14,NNE,15,13.0,16.0,42,0.00,,,0.00,0,weatherlink.com 1.10,2013-09-01 05:31:00,
2013-08-31 23:46:00,67.8,44.0,30.14,NE,35,9.0,14.0,43,0.00,,,0.00,0,weatherlink.com 1.10,2013-09-01 05:46:00,